This demonstration page uses our WeatherBlox Daily Observations layout. Learn more.

Left ArrowRight Arrow

Hourly Observations for October 10, 2021

Temp ( °F °C ) Dew Point ( °F °C ) Humidity (%) Winds ( mph kmh ) Pressure ( in mb ) Visibility ( mi km ) Precip ( " mm )
12:53 am 00:53 Clear 54 12.2 35 1.7 49 49 N N/A 30.11 1020 10 16 N/A
1:53 am 01:53 Clear 50 10 36 2.2 59 59 N N/A 30.11 1020 10 16 N/A
2:53 am 02:53 Clear 50 10 38 3.3 63 63 NNE 3 6 30.11 1020 10 16 N/A
3:53 am 03:53 Clear 47 8.3 34 1.1 61 61 N N/A 30.10 1019 10 16 N/A
4:53 am 04:53 Clear 48 8.9 35 1.7 61 61 N N/A 30.09 1019 10 16 N/A
5:53 am 05:53 Clear 46 7.8 34 1.1 63 63 N N/A 30.10 1019 10 16 N/A
6:53 am 06:53 Clear 46 7.8 36 2.2 68 68 N N/A 30.10 1019 10 16 N/A
7:53 am 07:53 Sunny 47 8.3 35 1.7 63 63 N N/A 30.10 1019 10 16 N/A
8:53 am 08:53 Sunny 55 12.8 37 2.8 51 51 N N/A 30.10 1019 10 16 N/A
9:53 am 09:53 Sunny 68 20 38 3.3 33 33 NW 5 7 30.09 1019 10 16 N/A
10:53 am 10:53 Sunny 74 23.3 35 1.7 24 24 VRB 7 11 30.07 1018 10 16 N/A
11:53 am 11:53 Sunny 77 25 35 1.7 22 22 VRB 7 11 30.06 1018 10 16 N/A
12:53 pm 12:53 Sunny 80 26.7 34 1.1 19 19 VRB 7 11 30.03 1017 10 16 N/A
1:53 pm 13:53 Sunny 82 27.8 36 2.2 19 19 N N/A 29.97 1015 10 16 N/A
2:53 pm 14:53 Sunny 83 28.3 36 2.2 19 19 WSW 6 9 29.94 1014 10 16 N/A
3:53 pm 15:53 Sunny 84 28.9 36 2.2 18 18 N N/A 29.90 1013 10 16 N/A
4:53 pm 16:53 Sunny 83 28.3 36 2.2 19 19 SSW 8 13 29.88 1012 10 16 N/A
5:53 pm 17:53 Sunny 81 27.2 26 -3.3 13 13 VRB 3 6 29.87 1012 10 16 N/A
6:53 pm 18:53 Clear 74 23.3 30 -1.1 20 20 WNW 8 13 29.88 1012 10 16 N/A
7:53 pm 19:53 Clear 72 22.2 29 -1.7 20 20 WNW 8 13 29.90 1012 10 16 N/A
8:53 pm 20:53 Clear 68 20 32 undefined 26 26 WNW 14 22 29.92 1013 10 16 N/A
9:53 pm 21:53 Clear 65 18.3 35 1.7 33 33 NW 17 28 29.95 1014 10 16 N/A
10:53 pm 22:53 Clear 62 16.7 36 2.2 38 38 NW 12 19 29.97 1015 10 16 N/A
11:53 pm 23:53 Clear 61 16.1 37 2.8 41 41 WNW 9 15 29.99 1016 10 16 N/A

Powered by AerisWeather